Flag for Switzerland Weather past 2 weeks in Köniz, Bern, Switzerland

Now
63 °F

Broken clouds.


Feels Like: 63 °F
Forecast: 57 / 73 °F
Wind: 1 mph from North

Location: Bern / Belp

Current Time: Jul 22, 2014 at 7:30:58 PM

Latest Report: Jul 22, 2014 at 6:50 PM


Visibility: 4 mi

Pressure: 30.01 "Hg

Humidity: 100%

Dew point: 63 °F

Location of KönizLocation

Historic Weather in Köniz — Graph

°F

Köniz temperature yesterday

Maximum temperature yesterday: 68 °F (at 1:20 PM)
Minimum temperature yesterday: 57 °F (at 12:20 AM)
Average temperature yesterday: 61 °F

Past Weeks' High & Low Weather Summary

 TemperatureHumidityPressure
High88 °F (Jul 18, 2:50 PM)100% (Jul 7, 11:20 PM)30.21 "Hg (Jul 7, 11:20 PM)
Low50 °F (Jul 10, 1:20 AM)29% (Jul 17, 6:20 PM)29.83 "Hg (Jul 10, 4:50 AM)
Average63 °F82%30.01 "Hg
* Reported Jul 7 6:20 PM — Jul 22 6:20 PM, Köniz, Weather by CustomWeather, © 2014

Note: Actual official high and low records may vary slightly from our data, if they occured in-between our weather recording intervals... More about our weather records

Advertising

Köniz weather history for previous 24 hours

 ConditionsComfort  
Time TempWeatherWind HumidityBarometerVisibility
6:20 PM
Jul 22
64 °FDrizzle. Fog.2 mph94%30.01 "Hg2 mi
5:50 PM64 °FLight rain. Broken clouds.2 mph94%30.01 "Hg4 mi
5:20 PM66 °FSprinkles. Broken clouds.3 mph88%30.01 "Hg6 mi
4:50 PM64 °FDrizzle. Broken clouds.2 mph94%30.01 "Hg6 mi
4:20 PM66 °FBroken clouds.2 mph88%30.01 "Hg6 mi
3:50 PM66 °FBroken clouds.3 mph88%30.01 "Hg6 mi
3:20 PM66 °FBroken clouds.3 mph88%29.98 "Hg5 mi
2:50 PM64 °FDrizzle. Broken clouds.2 mph88%30.01 "Hg4 mi
2:20 PM64 °FDrizzle. Broken clouds.5 mph88%30.01 "Hg4 mi
1:50 PM66 °FLight rain. Broken clouds.6 mph83%29.98 "Hg4 mi
1:20 PM66 °FBroken clouds.7 mph83%29.98 "Hg4 mi
12:50 PM66 °FBroken clouds.7 mph83%29.98 "HgN/A
12:20 PM66 °FBroken clouds.3 mph83%29.98 "HgN/A
11:50 AM64 °FBroken clouds.5 mph88%29.98 "HgN/A
11:20 AM64 °FLight rain. Broken clouds.3 mph88%29.98 "HgN/A
10:50 AM63 °FLight rain. Broken clouds.2 mph100%29.98 "Hg4 mi
10:20 AM63 °FLight rain. Broken clouds.2 mph100%29.98 "Hg4 mi
9:50 AM63 °FRain. Broken clouds.No wind94%29.98 "Hg4 mi
9:20 AM63 °FLight rain. More clouds than sun.2 mph94%29.98 "Hg5 mi
8:50 AM61 °FLight rain. Broken clouds.2 mph100%29.98 "Hg5 mi
8:20 AM61 °FLight rain. Broken clouds.1 mph94%29.98 "Hg5 mi
7:50 AM61 °FLight rain. Broken clouds.2 mph94%29.98 "Hg2 mi
7:20 AM59 °FLight rain. Partly sunny.3 mph100%29.98 "Hg2 mi
6:50 AM59 °FSprinkles. Partly cloudy.2 mph100%29.98 "HgN/A
6:20 AM59 °FOvercast.3 mph100%29.95 "HgN/A
5:50 AM59 °FLight rain. Partly cloudy.No wind100%29.95 "HgN/A
5:20 AM59 °FLight rain. Passing clouds.1 mph100%29.95 "HgN/A
4:50 AM59 °FLight rain. Partly cloudy.2 mph100%29.95 "HgN/A
4:20 AM59 °FLight rain. Partly cloudy.2 mph100%29.95 "Hg6 mi
3:50 AM59 °FLight rain. Partly cloudy.2 mph100%29.95 "Hg5 mi
3:20 AM59 °FLight rain. Overcast.2 mph100%29.98 "HgN/A
2:50 AM59 °FPassing clouds.3 mph100%29.98 "HgN/A
2:20 AM59 °FLight rain. Passing clouds.3 mph100%29.98 "HgN/A
1:50 AM59 °FPassing clouds.5 mph100%29.98 "HgN/A
1:20 AM59 °FLight rain. Partly cloudy.2 mph100%29.98 "HgN/A
12:50 AM59 °FLight rain. Partly cloudy.3 mph100%29.98 "Hg4 mi
12:20 AM59 °FHeavy rain. Fog.2 mph100%30.01 "Hg2 mi
11:50 PM
Jul 21
59 °FLight rain. Partly cloudy.3 mph100%30.01 "HgN/A
11:20 PM59 °FRain. Partly cloudy.2 mph100%30.01 "Hg3 mi
10:50 PM59 °FRain. Fog.2 mph100%30.01 "Hg1 mi
10:20 PM61 °FRain. Partly cloudy.5 mph94%30.01 "Hg3 mi
9:50 PM61 °FRain. Broken clouds.3 mph94%30.01 "Hg5 mi
9:20 PM61 °FRain. Broken clouds.3 mph94%29.98 "Hg3 mi
8:50 PM61 °FLight rain. Broken clouds.3 mph94%29.98 "HgN/A
8:20 PM63 °FPartly sunny.1 mph88%29.98 "HgN/A
7:50 PM63 °FBroken clouds.3 mph88%29.98 "HgN/A
7:20 PM63 °FBroken clouds.3 mph94%29.98 "HgN/A
Weather by CustomWeather, © 2014

See weather overviewHow to use our weather pages